This is the latest recevied weather packets stored in our database for station/object EA5JUX. If no packets are shown the sender has not sent any weather packets the latest 1 day(s).
| Time | Temp. | Humidity | Pressure | Rain* | Wind** | Luminosity | Snow |
|---|---|---|---|---|---|---|---|
| 1778099237 | 17.22° C | 78% | 1010.8 hPa | 0 mm | - | - | - |
| 1778098637 | 17.78° C | 78% | 1010.8 hPa | 0 mm | - | - | - |
| 1778097737 | 17.78° C | 77% | 1010.5 hPa | 0 mm | - | - | - |
| 1778093237 | 18.33° C | 76% | 1009.5 hPa | 0 mm | - | - | - |
| 1778092637 | 18.33° C | 76% | 1009.6 hPa | 0 mm | - | - | - |
| 1778092337 | 18.33° C | 75% | 1009.5 hPa | 0 mm | - | - | - |
| 1778092037 | 18.33° C | 75% | 1009.3 hPa | 0 mm | - | - | - |
| 1778091146 | 18.33° C | 75% | 1009.3 hPa | 0 mm | - | - | - |
| 1778087837 | 18.89° C | 75% | 1009.2 hPa | 0 mm | - | - | - |
| 1778086945 | 18.89° C | 75% | 1009.3 hPa | 0 mm | - | - | - |
| 1778086637 | 18.89° C | 75% | 1009.5 hPa | 0 mm | - | - | - |
| 1778086037 | 19.44° C | 75% | 1009.4 hPa | 0 mm | - | - | - |
| 1778085737 | 19.44° C | 74% | 1009.3 hPa | 0 mm | - | - | - |
| 1778085437 | 18.89° C | 74% | 1009.2 hPa | 0 mm | - | - | - |
| 1778084846 | 19.44° C | 73% | 1009.5 hPa | 0 mm | - | - | - |
| 1778084537 | 19.44° C | 73% | 1009.5 hPa | 0 mm | - | - | - |
| 1778084237 | 19.44° C | 74% | 1009.3 hPa | 0 mm | - | - | - |
| 1778083952 | 19.44° C | 73% | 1009.5 hPa | 0 mm | - | - | - |
| 1778083037 | 19.44° C | 74% | 1009.4 hPa | 0 mm | - | - | - |
| 1778082737 | 19.44° C | 74% | 1009.6 hPa | 0 mm | - | - | - |
| 1778081837 | 19.44° C | 75% | 1009.5 hPa | 0 mm | - | - | - |
| 1778081237 | 19.44° C | 74% | 1009.4 hPa | 0 mm | - | - | - |
| 1778079138 | 20° C | 72% | 1009.4 hPa | 0 mm | - | - | - |
| 1778077637 | 20.56° C | 71% | 1009.4 hPa | 0 mm | - | - | - |
| 1778077048 | 20.56° C | 72% | 1009.5 hPa | 0 mm | - | - | - |
* Rain latest hour (hover to see other rain measurements)
** Current wind speed in m/s (hover to see current wind gust speed)